Tracking 18876 objects as of 15-Dec-2017
HD Live streaming from Space Station
objects crossing your sky now

FOX-1B (RADFXSAT AO-91)

Track FOX-1B (RADFXSAT AO-91) now!
10-day predictions
FOX-1B (RADFXSAT AO-91) is classified as:


NORAD ID: 43017
Int'l Code: 2017-073E
Perigee: 460.1 km
Apogee: 826.7 km
Inclination: 97.7 °
Period: 97.4 minutes
Semi major axis: 7014 km
RCS: Unknown
Launch date: November 18, 2017
Source: United States (US)
Launch site: AIR FORCE WESTERN TEST RANGE (AFWTR)
Uplink (MHz): 435.250
Downlink (MHz): 145.960
Beacon (MHz): 145.960
Mode: FM CTCSS 67.0Hz/200bps DUV
Call sign:
Status: Active

aabbcc
Your satellite tracking list
Your tracking list is empty




NASA's NSSDC Master Catalog

Two Line Element Set (TLE):
1 43017U 17073E   17348.38379997 +.00000473 +00000-0 +42465-4 0  9990
2 43017 097.6935 282.4015 0261312 152.8745 208.6402 14.77797456003816
Source of the keplerian elements: AFSPC